Вернуться в каталог

SCOUT A R/B

АктивенPO
NORAD 2967·ROCKET BODY·🇺🇸 United States

Запущен Sep 25, 1967 с Vandenberg Space Force Base

Loading…

Ближайшие Пролёты (ближайшие 24 часа)

TLE

СвежийSource: Space-Track

Эпоха: Sep 14, 2026, 14:09 UTC

1 02967U 67092B   26257.59026802  .00000095  00000-0  12614-3 0  9993
2 02967  89.2628   2.4140 0046107 200.1325 223.2938 13.52406356907014

Отслеживайте SCOUT A R/B в реальном времени с AllMySat

Download on the App Store